Tracking 33750 objects as of 15-Apr-2026
HD Live streaming from Space Station
objects crossing your sky now

FENGYUN 1C DEB

Track FENGYUN 1C DEB now!
10-day predictions


NORAD ID: 30347
Int'l Code: 1999-025ABJ
Perigee: 815.8 km
Apogee: 1,035.8 km
Inclination: 98.4 °
Period: 103.4 minutes
Semi major axis: 7296 km
RCS: 0.028 m2 (small)
Launch date: May 10, 1999
Source: People's Republic of China (PRC)
Launch site: Taiyaun Space Center, China (TSC)

Note: This is SATELLITE DEBRIS
Your satellite tracking list
Your tracking list is empty




NASA's NSSDC Master Catalog

Two Line Element Set (TLE):
1 30347U 99025ABJ 26105.22967955  .00000152  00000-0  13334-3 0  9996
2 30347  98.3865 282.5183 0150735  50.3465 127.3727 13.92842866976797
Source of the keplerian elements: AFSPC